Location: Aiyekoto
(8.4333°N, 4.3667°E)
Time: 12:26:51
(UTC+00:00)

Courier 1B - All Passes

Search period start: 26 September 2020 00:00
Search period end: 06 October 2020 00:00
Orbit: 962 x 1209 km, 28.3° (Epoch: 26 September)

Date Brightness Start Highest point End Pass type
(mag) Time Alt. Az. Time Alt. Az. Time Alt. Az.
26 Sep - 01:30:04 10° NNW 01:33:43 14° N 01:37:17 10° NNE visible
26 Sep - 03:24:54 10° NNW 03:29:38 19° NNE 03:34:12 10° ENE visible
26 Sep - 05:18:10 10° NW 05:24:35 46° NNE 05:30:46 10° E daylight
26 Sep - 07:12:19 10° WNW 07:18:39 51° SSW 07:24:54 10° SE daylight
26 Sep - 09:10:04 10° SW 09:12:47 13° SSW 09:15:31 10° S daylight
26 Sep - 16:58:52 10° SSE 16:59:31 10° SSE 17:00:09 10° SSE daylight
26 Sep - 18:47:10 10° SW 18:54:15 38° SSE 19:01:24 10° E visible
26 Sep - 20:40:50 10° WSW 20:48:41 72° NNW 20:56:25 10° NE visible
26 Sep - 22:37:08 10° WNW 22:43:35 28° NNW 22:49:50 10° NE night (unlit)
27 Sep - 00:35:12 10° NW 00:39:20 15° N 00:43:22 10° NNE night (unlit)
27 Sep - 02:31:03 10° NNW 02:35:24 17° N 02:39:36 10° NE visible
27 Sep - 04:24:29 10° NW 04:30:41 35° NNE 04:36:36 10° E visible
27 Sep - 06:18:17 10° WNW 06:24:56 74° SSW 06:31:23 10° SE daylight
27 Sep - 08:14:32 10° WSW 08:18:55 19° SSW 08:23:18 10° SSE daylight
27 Sep - 17:53:55 10° SSW 18:00:15 28° SSE 18:06:41 10° E visible
27 Sep - 19:46:47 10° WSW 19:54:39 87° SSE 20:02:31 10° ENE visible
27 Sep - 21:42:22 10° W 21:49:23 35° NNW 21:56:15 10° NE visible
27 Sep - 23:40:10 10° NW 23:44:57 17° N 23:49:37 10° NNE night (unlit)
28 Sep - 01:36:59 10° NNW 01:41:04 15° N 01:45:03 10° NE visible
28 Sep - 03:30:47 10° NW 03:36:40 28° NNE 03:42:17 10° ENE visible
28 Sep - 05:24:22 10° WNW 05:31:11 81° NNE 05:37:42 10° ESE daylight
28 Sep - 07:19:43 10° W 07:25:08 27° SSW 07:30:28 10° SSE daylight
28 Sep - 17:01:01 10° SSW 17:06:13 20° SSE 17:11:32 10° ESE daylight
28 Sep - 18:52:58 10° SW 19:00:38 66° SSE 19:08:26 10° ENE visible
28 Sep - 20:47:48 10° W 20:55:14 45° NNW 21:02:34 10° NE visible
28 Sep - 22:45:07 10° WNW 22:50:35 20° NNW 22:55:56 10° NNE night (unlit)
29 Sep - 00:42:39 10° NNW 00:46:42 15° N 00:50:38 10° NE night (unlit)
29 Sep - 02:37:03 10° NW 02:42:33 23° NNE 02:47:49 10° ENE visible
29 Sep - 04:30:31 10° NW 04:37:22 59° NNE 04:43:52 10° ESE visible
29 Sep - 06:25:15 10° W 06:31:24 39° SSW 06:37:22 10° SE daylight
29 Sep - 16:08:46 10° S 16:12:10 13° SSE 16:15:37 10° ESE daylight
29 Sep - 17:59:21 10° SW 18:06:39 48° SSE 18:14:09 10° ENE visible
29 Sep - 19:53:27 10° WSW 20:01:07 58° NNW 20:08:49 10° NE visible
29 Sep - 21:50:09 10° WNW 21:56:15 24° NNW 22:02:17 10° NE visible
29 Sep - 23:48:00 10° NW 23:52:16 15° N 23:56:25 10° NNE night (unlit)
30 Sep - 01:43:12 10° NNW 01:48:20 20° NNE 01:53:15 10° ENE visible
30 Sep - 03:36:43 10° NW 03:43:29 45° NNE 03:49:51 10° E visible
30 Sep - 05:30:59 10° WNW 05:37:40 56° SSW 05:44:02 10° SE daylight
30 Sep - 07:28:32 10° WSW 07:31:44 14° SSW 07:34:53 10° S daylight
30 Sep - 17:06:00 10° SSW 17:12:42 35° SSE 17:19:37 10° E daylight
30 Sep - 18:59:20 10° WSW 19:07:03 76° NNW 19:14:56 10° ENE visible
30 Sep - 20:55:20 10° WNW 21:01:58 30° NNW 21:08:36 10° NE visible
30 Sep - 22:53:09 10° NW 22:57:49 17° N 23:02:23 10° NNE night (unlit)
01 Oct - 00:49:13 10° NNW 00:54:01 18° N 00:58:38 10° NE night (unlit)
01 Oct - 02:42:56 10° NW 02:49:29 35° NNE 02:55:40 10° E visible
01 Oct - 04:36:52 10° WNW 04:43:54 79° SSW 04:50:33 10° SE visible
01 Oct - 06:33:05 10° WSW 06:37:53 21° SSW 06:42:35 10° SSE daylight
01 Oct - 16:12:56 10° SSW 16:18:44 25° SSE 16:24:45 10° E daylight
01 Oct - 18:05:26 10° WSW 18:13:02 82° SSE 18:20:55 10° ENE visible
01 Oct - 20:00:41 10° W 20:07:45 37° NNW 20:14:53 10° NE visible
01 Oct - 21:58:12 10° NW 22:03:22 19° N 22:08:29 10° NNE night (unlit)
01 Oct - 23:55:04 10° NNW 23:59:36 16° N 00:04:02 10° NE night (unlit)
02 Oct - 01:49:08 10° NW 01:55:23 28° NNE 02:01:19 10° ENE visible
02 Oct - 03:42:53 10° WNW 03:50:05 77° NNE 03:56:51 10° ESE visible
02 Oct - 05:38:15 10° W 05:44:06 30° SSW 05:49:45 10° SSE daylight
02 Oct - 15:20:17 10° S 15:24:46 17° SSE 15:29:24 10° ESE daylight
02 Oct - 17:11:45 10° SW 17:19:04 61° SSE 17:26:44 10° ENE daylight
02 Oct - 19:06:16 10° W 19:13:35 47° NNW 19:21:06 10° NE visible
02 Oct - 21:03:16 10° WNW 21:08:58 21° NNW 21:14:39 10° NNE visible
02 Oct - 23:00:40 10° NW 23:05:09 16° N 23:09:33 10° NE night (unlit)
03 Oct - 00:55:18 10° NW 01:01:10 24° NNE 01:06:48 10° ENE night (unlit)
03 Oct - 02:48:57 10° NW 02:56:11 57° NNE 03:02:58 10° ESE visible
03 Oct - 04:43:43 10° W 04:50:20 43° SSW 04:56:37 10° SE visible
03 Oct - 06:44:09 10° SSW 06:44:32 10° SSW 06:44:55 10° SSW daylight
03 Oct - 14:28:43 10° SSE 14:30:46 11° SSE 14:32:51 10° SE daylight
03 Oct - 16:18:18 10° SW 16:25:08 44° SSE 16:32:21 10° E daylight
03 Oct - 18:12:04 10° WSW 18:19:30 61° NNW 18:27:14 10° NE visible
03 Oct - 20:08:26 10° WNW 20:14:38 25° NNW 20:20:52 10° NE visible
03 Oct - 22:06:05 10° NW 22:10:40 16° N 22:15:12 10° NNE night (unlit)
04 Oct - 00:01:25 10° NNW 00:06:52 20° NNE 00:12:09 10° ENE night (unlit)
04 Oct - 01:55:05 10° NW 02:02:12 44° NNE 02:08:54 10° E visible
04 Oct - 03:49:24 10° WNW 03:56:33 61° SSW 04:03:15 10° SE visible
04 Oct - 05:46:42 10° WSW 05:50:38 16° SSW 05:54:28 10° S daylight
04 Oct - 15:25:06 10° SSW 15:31:16 31° SSE 15:37:44 10° E daylight
04 Oct - 17:18:06 10° WSW 17:25:28 80° NNW 17:33:15 10° ENE daylight
04 Oct - 19:13:45 10° W 19:20:21 31° NNW 19:27:05 10° NE visible
04 Oct - 21:11:19 10° NW 21:16:11 17° N 21:21:02 10° NNE visible
04 Oct - 23:07:25 10° NNW 23:12:28 18° N 23:17:26 10° NE night (unlit)
05 Oct - 01:01:15 10° NW 01:08:06 35° NNE 01:14:38 10° E night (unlit)
05 Oct - 02:55:15 10° WNW 03:02:43 84° SSW 03:09:42 10° ESE visible
05 Oct - 04:51:21 10° W 04:56:47 23° SSW 05:01:59 10° SSE visible
05 Oct - 14:32:13 10° SSW 14:37:23 22° SSE 14:42:45 10° E daylight
05 Oct - 16:24:20 10° SW 16:31:31 77° SSE 16:39:10 10° ENE daylight
05 Oct - 18:19:16 10° W 18:26:08 38° NNW 18:33:17 10° NE visible
05 Oct - 20:16:30 10° NW 20:21:43 19° N 20:27:01 10° NNE visible
05 Oct - 22:13:16 10° NNW 22:18:01 17° N 22:22:43 10° NE night (unlit)
